Check out our new BloomSky Weather System.

Active alerts


No alerts


Thunder radar  blitzortung!


Rain radar more information rain snow radar


Visit our other weather sites:

Template documentation
and downloads

And another site



Weather Underground History page Text

Daily Summary for June 30, 2017 Units:  Metric    English   Both
« Previous Day
Next Day »
Daily Weekly Monthly Yearly Custom
  High: Low: Average:
Temperature: 34.6 °C 27.1 °C 30.4 °C
Dew Point: 27.2 °C 24.9 °C 25.9 °C
Humidity: 94 % 59 % 78 %
Wind Speed: 19.3 km/h 0 km/h 9.2 km/h
Wind Gust: 32.2 km/h - -
Wind:- - SSE
Pressure: 1015.1 hPa 1011.7 hPa -
Precipitation: 0 mm    
Historical Graphs
 
 
Tabular Data for June 30, 2017
Time Temperature Dew Point Pressure Wind Wind Speed Wind Gust Humidity Rainfall Rate (Hourly)
00:04 27.8 °C 25.6 °C 1012.1 hPa SSE 8 km/h 19.3 km/h 88 % 0 mm
00:09 27.8 °C 25.6 °C 1012.1 hPa SE 3.2 km/h 19.3 km/h 88 % 0 mm
00:14 27.8 °C 25.8 °C 1012.1 hPa ESE 3.2 km/h 19.3 km/h 89 % 0 mm
00:19 27.8 °C 25.8 °C 1012.1 hPa South 6.4 km/h 17.7 km/h 89 % 0 mm
00:24 27.8 °C 25.8 °C 1012.1 hPa SSW 8 km/h 17.7 km/h 89 % 0 mm
00:29 27.8 °C 25.8 °C 1012.1 hPa SE 9.7 km/h 17.7 km/h 89 % 0 mm
00:34 27.8 °C 25.8 °C 1012.1 hPa SW 14.5 km/h 20.9 km/h 89 % 0 mm
00:39 27.8 °C 25.8 °C 1012.1 hPa SSE 6.4 km/h 20.9 km/h 89 % 0 mm
00:40 27.8 °C 25.8 °C 1012.1 hPa South 8 km/h 20.9 km/h 89 % 0 mm
00:45 27.8 °C 25.8 °C 1012.1 hPa SSW 8 km/h 20.9 km/h 89 % 0 mm
00:50 27.8 °C 25.8 °C 1012.4 hPa SE 8 km/h 19.3 km/h 89 % 0 mm
00:55 27.8 °C 25.8 °C 1012.4 hPa South 9.7 km/h 20.9 km/h 89 % 0 mm
01:00 27.8 °C 25.8 °C 1012.4 hPa SSE 9.7 km/h 20.9 km/h 89 % 0 mm
01:05 27.7 °C 25.7 °C 1012.4 hPa SE 9.7 km/h 20.9 km/h 89 % 0 mm
01:10 27.7 °C 25.7 °C 1012.4 hPa SE 9.7 km/h 20.9 km/h 89 % 0 mm
01:15 27.7 °C 25.7 °C 1012.4 hPa South 6.4 km/h 14.5 km/h 89 % 0 mm
01:20 27.7 °C 25.7 °C 1012.4 hPa South 11.3 km/h 16.1 km/h 89 % 0 mm
01:25 27.7 °C 25.7 °C 1012.4 hPa South 4.8 km/h 17.7 km/h 89 % 0 mm
01:30 27.6 °C 25.6 °C 1012.4 hPa SSE 11.3 km/h 17.7 km/h 89 % 0 mm
01:35 27.6 °C 25.6 °C 1012.4 hPa SE 3.2 km/h 17.7 km/h 89 % 0 mm
01:40 27.6 °C 25.6 °C 1012.4 hPa SSE 8 km/h 17.7 km/h 89 % 0 mm
01:45 27.6 °C 25.8 °C 1012.4 hPa SSW 6.4 km/h 17.7 km/h 90 % 0 mm
01:50 27.6 °C 25.8 °C 1012.4 hPa SSE 6.4 km/h 16.1 km/h 90 % 0 mm
01:55 27.6 °C 25.6 °C 1012.4 hPa SSW 8 km/h 22.5 km/h 89 % 0 mm
02:00 27.6 °C 25.8 °C 1012.4 hPa South 9.7 km/h 22.5 km/h 90 % 0 mm
02:05 27.6 °C 25.8 °C 1012.4 hPa SE 9.7 km/h 22.5 km/h 90 % 0 mm
02:10 27.6 °C 25.8 °C 1012.4 hPa SSE 8 km/h 17.7 km/h 90 % 0 mm
02:15 27.6 °C 25.8 °C 1012.4 hPa SSE 14.5 km/h 17.7 km/h 90 % 0 mm
02:20 27.6 °C 25.8 °C 1012.4 hPa SE 4.8 km/h 17.7 km/h 90 % 0 mm
02:25 27.6 °C 25.8 °C 1012.4 hPa SSE 9.7 km/h 17.7 km/h 90 % 0 mm
02:30 27.6 °C 25.8 °C 1012.4 hPa SSE 12.9 km/h 16.1 km/h 90 % 0 mm
02:35 27.6 °C 25.8 °C 1012.4 hPa SE 8 km/h 16.1 km/h 90 % 0 mm
02:40 27.6 °C 25.8 °C 1012.4 hPa ESE 9.7 km/h 17.7 km/h 90 % 0 mm
02:45 27.6 °C 25.8 °C 1012.4 hPa SW 4.8 km/h 17.7 km/h 90 % 0 mm
02:50 27.6 °C 25.8 °C 1012.1 hPa SSE 8 km/h 20.9 km/h 90 % 0 mm
02:55 27.6 °C 25.8 °C 1012.1 hPa ESE 8 km/h 20.9 km/h 90 % 0 mm
02:57 27.6 °C 25.8 °C 1012.1 hPa South 4.8 km/h 20.9 km/h 90 % 0 mm
03:02 27.6 °C 25.8 °C 1012.1 hPa SE 14.5 km/h 20.9 km/h 90 % 0 mm
03:07 27.6 °C 25.8 °C 1012.1 hPa South 9.7 km/h 19.3 km/h 90 % 0 mm
03:12 27.6 °C 25.8 °C 1012.1 hPa South 11.3 km/h 20.9 km/h 90 % 0 mm
03:17 27.6 °C 25.8 °C 1012.1 hPa SSE 8 km/h 20.9 km/h 90 % 0 mm
03:18 27.6 °C 25.8 °C 1012.1 hPa SSE 6.4 km/h 20.9 km/h 90 % 0 mm
03:23 27.6 °C 25.8 °C 1012.1 hPa South 6.4 km/h 20.9 km/h 90 % 0 mm
03:28 27.5 °C 25.7 °C 1012.1 hPa SE 6.4 km/h 17.7 km/h 90 % 0 mm
03:33 27.5 °C 25.9 °C 1012.1 hPa SSE 8 km/h 17.7 km/h 91 % 0 mm
03:38 27.4 °C 25.8 °C 1012.1 hPa SSW 11.3 km/h 17.7 km/h 91 % 0 mm
03:44 27.4 °C 25.8 °C 1011.7 hPa SE 4.8 km/h 17.7 km/h 91 % 0 mm
03:49 27.5 °C 25.9 °C 1011.7 hPa SSE 8 km/h 17.7 km/h 91 % 0 mm
03:54 27.4 °C 25.8 °C 1011.7 hPa SSE 11.3 km/h 20.9 km/h 91 % 0 mm
04:58 27.2 °C 25.8 °C 1011.7 hPa South 9.7 km/h 16.1 km/h 92 % 0 mm
05:03 27.2 °C 25.8 °C 1011.7 hPa South 9.7 km/h 16.1 km/h 92 % 0 mm
05:08 27.1 °C 25.7 °C 1011.7 hPa SSE 4.8 km/h 16.1 km/h 92 % 0 mm
05:10 27.1 °C 25.9 °C 1011.7 hPa SSE 8 km/h 16.1 km/h 93 % 0 mm
05:15 27.1 °C 25.9 °C 1011.7 hPa SSW 6.4 km/h 16.1 km/h 93 % 0 mm
05:20 27.1 °C 25.9 °C 1011.7 hPa South 9.7 km/h 16.1 km/h 93 % 0 mm
05:25 27.1 °C 25.9 °C 1012.1 hPa SW 6.4 km/h 16.1 km/h 93 % 0 mm
05:30 27.1 °C 25.9 °C 1012.1 hPa SSW 4.8 km/h 16.1 km/h 93 % 0 mm
05:35 27.1 °C 25.9 °C 1012.1 hPa South 9.7 km/h 16.1 km/h 93 % 0 mm
05:40 27.1 °C 25.9 °C 1012.1 hPa SSE 3.2 km/h 16.1 km/h 93 % 0 mm
05:45 27.1 °C 25.9 °C 1012.1 hPa SSE 4.8 km/h 16.1 km/h 93 % 0 mm
05:50 27.1 °C 25.9 °C 1012.4 hPa SE 4.8 km/h 12.9 km/h 93 % 0 mm
05:55 27.1 °C 25.9 °C 1012.4 hPa South 4.8 km/h 14.5 km/h 93 % 0 mm
06:58 27.1 °C 26 °C 1013.1 hPa Calm   8 km/h 94 % 0 mm
07:03 27.1 °C 26 °C 1013.1 hPa SE 4.8 km/h 9.7 km/h 94 % 0 mm
07:08 27.1 °C 25.9 °C 1013.1 hPa SE 4.8 km/h 9.7 km/h 93 % 0 mm
07:13 27.1 °C 25.9 °C 1013.1 hPa SSE 6.4 km/h 11.3 km/h 93 % 0 mm
07:18 27.2 °C 26 °C 1013.1 hPa SSE 6.4 km/h 12.9 km/h 93 % 0 mm
07:23 27.2 °C 26 °C 1013.1 hPa South 8 km/h 12.9 km/h 93 % 0 mm
07:28 27.2 °C 26 °C 1013.1 hPa SSW 6.4 km/h 12.9 km/h 93 % 0 mm
07:33 27.3 °C 26.1 °C 1013.4 hPa SSE 1.6 km/h 12.9 km/h 93 % 0 mm
07:38 27.3 °C 26.1 °C 1013.4 hPa SSE 6.4 km/h 12.9 km/h 93 % 0 mm
07:39 27.3 °C 26.1 °C 1013.4 hPa South 3.2 km/h 12.9 km/h 93 % 0 mm
07:44 27.3 °C 26.1 °C 1013.4 hPa SE 8 km/h 9.7 km/h 93 % 0 mm
07:49 27.3 °C 26.1 °C 1013.4 hPa South 8 km/h 12.9 km/h 93 % 0 mm
07:54 27.3 °C 26.1 °C 1013.8 hPa SSW 3.2 km/h 12.9 km/h 93 % 0 mm
07:59 27.4 °C 26.2 °C 1013.8 hPa SSW 3.2 km/h 12.9 km/h 93 % 0 mm
08:04 27.4 °C 26 °C 1013.8 hPa South 4.8 km/h 11.3 km/h 92 % 0 mm
08:09 27.6 °C 26.4 °C 1013.8 hPa South 4.8 km/h 9.7 km/h 93 % 0 mm
08:14 27.7 °C 26.3 °C 1014.1 hPa SSE 3.2 km/h 9.7 km/h 92 % 0 mm
08:19 27.8 °C 26.2 °C 1014.1 hPa SE 6.4 km/h 9.7 km/h 91 % 0 mm
08:24 27.9 °C 26.3 °C 1014.1 hPa South 9.7 km/h 9.7 km/h 91 % 0 mm
08:29 27.9 °C 26.3 °C 1014.1 hPa SSE 3.2 km/h 16.1 km/h 91 % 0 mm
08:34 28.1 °C 26.5 °C 1014.1 hPa South 9.7 km/h 16.1 km/h 91 % 0 mm
08:39 28.2 °C 26.4 °C 1014.1 hPa SSW 11.3 km/h 16.1 km/h 90 % 0 mm
08:44 28.5 °C 26.3 °C 1014.1 hPa South 6.4 km/h 16.1 km/h 88 % 0 mm
08:49 28.6 °C 26.4 °C 1014.1 hPa SE 4.8 km/h 16.1 km/h 88 % 0 mm
08:54 28.7 °C 26.3 °C 1014.1 hPa SE 12.9 km/h 16.1 km/h 87 % 0 mm
08:59 28.7 °C 26.5 °C 1014.1 hPa SSE 8 km/h 16.1 km/h 88 % 0 mm
09:04 28.9 °C 26.5 °C 1014.1 hPa SSW 9.7 km/h 16.1 km/h 87 % 0 mm
09:09 29.2 °C 26.6 °C 1014.1 hPa SE 11.3 km/h 14.5 km/h 86 % 0 mm
09:14 29.4 °C 26.6 °C 1014.1 hPa SSW 9.7 km/h 12.9 km/h 85 % 0 mm
09:19 29.7 °C 26.9 °C 1014.1 hPa ENE 9.7 km/h 12.9 km/h 85 % 0 mm
09:24 30.2 °C 26.8 °C 1014.1 hPa South 6.4 km/h 14.5 km/h 82 % 0 mm
09:29 30.4 °C 26.6 °C 1014.1 hPa SSW 6.4 km/h 19.3 km/h 80 % 0 mm
09:34 30.4 °C 26.6 °C 1014.1 hPa SSW 6.4 km/h 19.3 km/h 80 % 0 mm
09:39 30.7 °C 26.4 °C 1013.8 hPa SE 11.3 km/h 19.3 km/h 78 % 0 mm
09:44 30.9 °C 26.4 °C 1014.1 hPa South 12.9 km/h 19.3 km/h 77 % 0 mm
09:49 31 °C 26.3 °C 1014.1 hPa SE 8 km/h 19.3 km/h 76 % 0 mm
09:54 31.1 °C 26.1 °C 1014.1 hPa South 12.9 km/h 19.3 km/h 75 % 0 mm
09:59 31.2 °C 26.7 °C 1014.1 hPa SSW 9.7 km/h 20.9 km/h 77 % 0 mm
10:04 30.9 °C 25.7 °C 1014.1 hPa South 3.2 km/h 20.9 km/h 74 % 0 mm
10:09 30.8 °C 26.1 °C 1014.1 hPa South 3.2 km/h 20.9 km/h 76 % 0 mm
10:14 30.9 °C 26.4 °C 1014.1 hPa SSE 6.4 km/h 16.1 km/h 77 % 0 mm
10:19 30.8 °C 26.3 °C 1014.1 hPa South 6.4 km/h 16.1 km/h 77 % 0 mm
10:24 30.9 °C 26.2 °C 1014.1 hPa SE 14.5 km/h 14.5 km/h 76 % 0 mm
10:29 31.2 °C 26.5 °C 1014.1 hPa South 4.8 km/h 17.7 km/h 76 % 0 mm
10:34 31.3 °C 26.3 °C 1014.1 hPa SSW 3.2 km/h 17.7 km/h 75 % 0 mm
10:39 31.3 °C 26.3 °C 1014.1 hPa South 16.1 km/h 17.7 km/h 75 % 0 mm
10:44 31.3 °C 26.6 °C 1014.1 hPa SSE 9.7 km/h 17.7 km/h 76 % 0 mm
10:49 31.7 °C 26.7 °C 1013.8 hPa SSE 9.7 km/h 17.7 km/h 75 % 0 mm
10:54 31.9 °C 26.5 °C 1013.8 hPa SSE 8 km/h 17.7 km/h 73 % 0 mm
10:59 32.1 °C 26.4 °C 1013.8 hPa South 4.8 km/h 20.9 km/h 72 % 0 mm
11:04 32.4 °C 26.5 °C 1013.8 hPa SE 6.4 km/h 20.9 km/h 71 % 0 mm
11:09 32.4 °C 26.2 °C 1013.8 hPa South 11.3 km/h 20.9 km/h 70 % 0 mm
11:14 32.4 °C 26 °C 1013.8 hPa SE 9.7 km/h 19.3 km/h 69 % 0 mm
11:19 32.6 °C 26.7 °C 1013.8 hPa South 11.3 km/h 32.2 km/h 71 % 0 mm
11:24 32.7 °C 26.3 °C 1013.8 hPa South 8 km/h 32.2 km/h 69 % 0 mm
11:29 32.7 °C 26.5 °C 1013.8 hPa South 9.7 km/h 32.2 km/h 70 % 0 mm
11:34 32.6 °C 26.7 °C 1013.8 hPa ESE 12.9 km/h 25.7 km/h 71 % 0 mm
11:39 32.6 °C 26.4 °C 1013.8 hPa SSE 12.9 km/h 25.7 km/h 70 % 0 mm
11:44 32.7 °C 27.2 °C 1013.8 hPa SSE 8 km/h 22.5 km/h 73 % 0 mm
11:49 32.6 °C 26.7 °C 1014.1 hPa SSW 8 km/h 22.5 km/h 71 % 0 mm
11:54 32.4 °C 25.7 °C 1014.1 hPa SE 9.7 km/h 22.5 km/h 68 % 0 mm
11:59 32.6 °C 26.2 °C 1013.8 hPa SE 12.9 km/h 24.1 km/h 69 % 0 mm
12:04 32.7 °C 26 °C 1013.8 hPa SSW 12.9 km/h 24.1 km/h 68 % 0 mm
12:09 32.8 °C 25.9 °C 1013.8 hPa South 16.1 km/h 24.1 km/h 67 % 0 mm
12:14 32.7 °C 26 °C 1013.8 hPa South 14.5 km/h 24.1 km/h 68 % 0 mm
12:19 32.7 °C 26 °C 1013.8 hPa SSE 8 km/h 24.1 km/h 68 % 0 mm
12:21 32.7 °C 25.8 °C 1013.8 hPa East 19.3 km/h 24.1 km/h 67 % 0 mm
12:26 32.8 °C 25.9 °C 1013.8 hPa ESE 17.7 km/h 22.5 km/h 67 % 0 mm
12:31 33.1 °C 26.1 °C 1013.8 hPa SW 11.3 km/h 22.5 km/h 67 % 0 mm
12:36 33.1 °C 26.1 °C 1013.8 hPa SSW 8 km/h 22.5 km/h 67 % 0 mm
12:41 33.1 °C 25.9 °C 1013.8 hPa South 6.4 km/h 22.5 km/h 66 % 0 mm
12:46 33 °C 25.8 °C 1013.8 hPa SE 12.9 km/h 22.5 km/h 66 % 0 mm
12:51 32.7 °C 25.5 °C 1013.8 hPa SSE 8 km/h 22.5 km/h 66 % 0 mm
12:56 32.9 °C 26.2 °C 1013.8 hPa SSE 11.3 km/h 22.5 km/h 68 % 0 mm
13:01 33.2 °C 26 °C 1013.8 hPa South 11.3 km/h 25.7 km/h 66 % 0 mm
13:06 33.4 °C 25.7 °C 1013.8 hPa SE 14.5 km/h 25.7 km/h 64 % 0 mm
13:11 33.3 °C 25.6 °C 1013.8 hPa SE 9.7 km/h 25.7 km/h 64 % 0 mm
13:16 33.3 °C 25.6 °C 1013.8 hPa SSE 8 km/h 22.5 km/h 64 % 0 mm
13:21 33.4 °C 25.4 °C 1013.4 hPa SSW 11.3 km/h 22.5 km/h 63 % 0 mm
13:26 33.8 °C 25.5 °C 1013.8 hPa SSW 19.3 km/h 22.5 km/h 62 % 0 mm
13:31 33.9 °C 25.9 °C 1013.4 hPa SE 8 km/h 19.3 km/h 63 % 0 mm
13:36 34.3 °C 25.4 °C 1013.4 hPa South 14.5 km/h 19.3 km/h 60 % 0 mm
13:41 33.9 °C 25.9 °C 1013.8 hPa SSE 11.3 km/h 22.5 km/h 63 % 0 mm
13:46 34.1 °C 25.5 °C 1013.4 hPa South 12.9 km/h 22.5 km/h 61 % 0 mm
13:51 34.1 °C 25.8 °C 1013.4 hPa SE 17.7 km/h 22.5 km/h 62 % 0 mm
13:56 34.1 °C 26 °C 1013.4 hPa SSW 11.3 km/h 24.1 km/h 63 % 0 mm
14:01 33.9 °C 25.6 °C 1013.8 hPa South 8 km/h 24.1 km/h 62 % 0 mm
14:06 34 °C 25.7 °C 1013.8 hPa ESE 3.2 km/h 24.1 km/h 62 % 0 mm
14:11 34.2 °C 25 °C 1013.4 hPa SSE 3.2 km/h 20.9 km/h 59 % 0 mm
14:16 34.1 °C 24.9 °C 1013.4 hPa SE 14.5 km/h 20.9 km/h 59 % 0 mm
14:21 34.2 °C 25.6 °C 1013.4 hPa SSE 9.7 km/h 20.9 km/h 61 % 0 mm
14:26 34.1 °C 25.8 °C 1013.4 hPa ENE 16.1 km/h 20.9 km/h 62 % 0 mm
14:31 33.9 °C 25.6 °C 1013.1 hPa SSE 17.7 km/h 24.1 km/h 62 % 0 mm
14:36 33.6 °C 25.6 °C 1013.1 hPa SE 9.7 km/h 27.4 km/h 63 % 0 mm
14:41 33.8 °C 25.5 °C 1013.4 hPa SSE 16.1 km/h 27.4 km/h 62 % 0 mm
14:46 33.8 °C 25.5 °C 1013.1 hPa ESE 17.7 km/h 27.4 km/h 62 % 0 mm
14:50 33.8 °C 25.5 °C 1013.1 hPa SE 8 km/h 24.1 km/h 62 % 0 mm
14:55 33.9 °C 25.9 °C 1013.1 hPa SSW 11.3 km/h 24.1 km/h 63 % 0 mm
15:00 33.9 °C 25.6 °C 1013.1 hPa ESE 17.7 km/h 22.5 km/h 62 % 0 mm
15:05 33.7 °C 25.7 °C 1013.1 hPa SSE 12.9 km/h 22.5 km/h 63 % 0 mm
15:06 33.7 °C 25.7 °C 1013.1 hPa SSE 11.3 km/h 22.5 km/h 63 % 0 mm
15:11 33.9 °C 25.6 °C 1013.1 hPa SSW 6.4 km/h 22.5 km/h 62 % 0 mm
15:16 33.8 °C 24.9 °C 1013.1 hPa SSE 9.7 km/h 20.9 km/h 60 % 0 mm
15:21 33.7 °C 25.4 °C 1013.1 hPa SE 12.9 km/h 19.3 km/h 62 % 0 mm
15:26 33.8 °C 25.8 °C 1013.1 hPa East 9.7 km/h 24.1 km/h 63 % 0 mm
15:31 33.9 °C 25 °C 1013.1 hPa SE 9.7 km/h 24.1 km/h 60 % 0 mm
15:36 34.3 °C 26.2 °C 1013.1 hPa SSE 11.3 km/h 24.1 km/h 63 % 0 mm
15:41 34.4 °C 25.2 °C 1013.1 hPa SSE 14.5 km/h 22.5 km/h 59 % 0 mm
15:46 34.4 °C 25.5 °C 1012.8 hPa SSE 11.3 km/h 22.5 km/h 60 % 0 mm
15:51 34.6 °C 25.4 °C 1012.8 hPa SE 8 km/h 19.3 km/h 59 % 0 mm
15:56 34.3 °C 25.4 °C 1012.8 hPa SE 11.3 km/h 17.7 km/h 60 % 0 mm
16:01 34.1 °C 25.8 °C 1012.8 hPa ESE 17.7 km/h 20.9 km/h 62 % 0 mm
16:06 34 °C 25.4 °C 1012.8 hPa SSE 9.7 km/h 22.5 km/h 61 % 0 mm
16:11 34.1 °C 25.5 °C 1012.8 hPa SSW 12.9 km/h 22.5 km/h 61 % 0 mm
16:16 34.1 °C 25.5 °C 1012.8 hPa South 8 km/h 22.5 km/h 61 % 0 mm
16:21 33.6 °C 25.3 °C 1012.8 hPa ESE 8 km/h 25.7 km/h 62 % 0 mm
16:26 33.6 °C 25.3 °C 1012.8 hPa SSW 12.9 km/h 25.7 km/h 62 % 0 mm
16:31 33.8 °C 25.5 °C 1012.8 hPa SSW 8 km/h 25.7 km/h 62 % 0 mm
16:36 33.9 °C 25.6 °C 1012.8 hPa SSE 11.3 km/h 19.3 km/h 62 % 0 mm
16:41 33.8 °C 25.5 °C 1012.8 hPa SE 6.4 km/h 22.5 km/h 62 % 0 mm
16:46 33.7 °C 25.4 °C 1012.8 hPa SSE 9.7 km/h 22.5 km/h 62 % 0 mm
16:51 33.6 °C 25.3 °C 1012.8 hPa SSW 9.7 km/h 22.5 km/h 62 % 0 mm
16:56 33.5 °C 24.9 °C 1012.8 hPa ESE 12.9 km/h 22.5 km/h 61 % 0 mm
17:01 33.6 °C 25 °C 1012.8 hPa SE 8 km/h 17.7 km/h 61 % 0 mm
17:06 33.6 °C 25.3 °C 1013.1 hPa SSW 6.4 km/h 17.7 km/h 62 % 0 mm
17:11 33.3 °C 25.3 °C 1013.1 hPa SSE 6.4 km/h 17.7 km/h 63 % 0 mm
17:16 33 °C 25.3 °C 1012.8 hPa SSW 8 km/h 16.1 km/h 64 % 0 mm
17:21 32.9 °C 25.4 °C 1012.8 hPa SE 11.3 km/h 20.9 km/h 65 % 0 mm
17:26 32.7 °C 25.3 °C 1012.8 hPa South 9.7 km/h 20.9 km/h 65 % 0 mm
17:31 32.8 °C 25.6 °C 1012.8 hPa SE 12.9 km/h 20.9 km/h 66 % 0 mm
17:36 32.9 °C 25.4 °C 1012.8 hPa SW 8 km/h 17.7 km/h 65 % 0 mm
17:41 32.7 °C 25.5 °C 1012.8 hPa South 11.3 km/h 17.7 km/h 66 % 0 mm
17:42 32.7 °C 25.5 °C 1012.8 hPa South 16.1 km/h 17.7 km/h 66 % 0 mm
17:47 32.5 °C 25.6 °C 1012.8 hPa SSE 9.7 km/h 24.1 km/h 67 % 0 mm
17:52 32.5 °C 25.8 °C 1012.8 hPa SSE 8 km/h 24.1 km/h 68 % 0 mm
17:57 32.6 °C 25.7 °C 1012.8 hPa SSW 6.4 km/h 24.1 km/h 67 % 0 mm
18:02 33.1 °C 25.9 °C 1012.8 hPa SSE 8 km/h 19.3 km/h 66 % 0 mm
18:07 33.3 °C 25.6 °C 1012.8 hPa ESE 8 km/h 17.7 km/h 64 % 0 mm
18:12 33.3 °C 25.8 °C 1012.8 hPa SE 14.5 km/h 17.7 km/h 65 % 0 mm
18:17 33.2 °C 26 °C 1012.8 hPa South 8 km/h 19.3 km/h 66 % 0 mm
18:22 33.3 °C 26.1 °C 1012.8 hPa SSE 6.4 km/h 19.3 km/h 66 % 0 mm
18:27 33.2 °C 26 °C 1012.8 hPa SSE 12.9 km/h 19.3 km/h 66 % 0 mm
18:32 33.1 °C 26.1 °C 1012.8 hPa SE 16.1 km/h 19.3 km/h 67 % 0 mm
18:37 32.8 °C 26.4 °C 1012.8 hPa ESE 9.7 km/h 22.5 km/h 69 % 0 mm
18:42 32.7 °C 26.3 °C 1012.8 hPa SE 12.9 km/h 22.5 km/h 69 % 0 mm
18:47 32.3 °C 26.1 °C 1012.8 hPa SE 11.3 km/h 22.5 km/h 70 % 0 mm
18:52 32.2 °C 26 °C 1013.1 hPa SSE 9.7 km/h 24.1 km/h 70 % 0 mm
18:57 32 °C 25.8 °C 1013.1 hPa SSE 9.7 km/h 24.1 km/h 70 % 0 mm
19:02 31.9 °C 26 °C 1013.1 hPa ESE 16.1 km/h 24.1 km/h 71 % 0 mm
19:07 31.9 °C 26 °C 1013.1 hPa SSE 6.4 km/h 22.5 km/h 71 % 0 mm
19:12 31.9 °C 26 °C 1012.8 hPa ESE 12.9 km/h 20.9 km/h 71 % 0 mm
19:17 31.9 °C 26.2 °C 1013.1 hPa East 11.3 km/h 19.3 km/h 72 % 0 mm
19:22 31.8 °C 26.1 °C 1013.1 hPa SE 9.7 km/h 20.9 km/h 72 % 0 mm
19:27 31.7 °C 26 °C 1012.8 hPa SE 8 km/h 22.5 km/h 72 % 0 mm
19:32 31.6 °C 26.2 °C 1012.8 hPa SW 6.4 km/h 22.5 km/h 73 % 0 mm
19:37 31.4 °C 26 °C 1012.8 hPa SSE 11.3 km/h 22.5 km/h 73 % 0 mm
19:42 31.3 °C 26.1 °C 1012.8 hPa South 11.3 km/h 20.9 km/h 74 % 0 mm
19:47 31.3 °C 26.1 °C 1013.1 hPa South 8 km/h 22.5 km/h 74 % 0 mm
19:52 31.2 °C 26 °C 1012.8 hPa SE 16.1 km/h 22.5 km/h 74 % 0 mm
19:57 31.1 °C 26.1 °C 1012.8 hPa South 6.4 km/h 22.5 km/h 75 % 0 mm
20:02 30.9 °C 25.9 °C 1013.1 hPa SSE 9.7 km/h 20.9 km/h 75 % 0 mm
20:07 30.8 °C 25.9 °C 1012.8 hPa SSW 19.3 km/h 20.9 km/h 75 % 0 mm
20:12 30.7 °C 26 °C 1012.8 hPa SSE 12.9 km/h 20.9 km/h 76 % 0 mm
20:17 30.6 °C 25.9 °C 1012.8 hPa South 12.9 km/h 20.9 km/h 76 % 0 mm
20:22 30.4 °C 25.9 °C 1012.8 hPa SSE 4.8 km/h 19.3 km/h 77 % 0 mm
20:28 30.3 °C 25.8 °C 1012.8 hPa ESE 9.7 km/h 19.3 km/h 77 % 0 mm
20:33 30.2 °C 25.9 °C 1012.8 hPa SSE 8 km/h 19.3 km/h 78 % 0 mm
20:38 30.2 °C 25.9 °C 1012.8 hPa ESE 8 km/h 19.3 km/h 78 % 0 mm
20:43 30.1 °C 25.8 °C 1012.8 hPa SSE 9.7 km/h 19.3 km/h 78 % 0 mm
20:48 29.9 °C 25.9 °C 1012.4 hPa SSE 11.3 km/h 19.3 km/h 79 % 0 mm
20:53 29.8 °C 25.8 °C 1012.4 hPa SSE 11.3 km/h 24.1 km/h 79 % 0 mm
20:58 29.8 °C 26 °C 1012.4 hPa SSE 9.7 km/h 24.1 km/h 80 % 0 mm
21:03 29.8 °C 26 °C 1012.8 hPa SE 8 km/h 24.1 km/h 80 % 0 mm
21:08 29.7 °C 25.9 °C 1012.8 hPa South 6.4 km/h 20.9 km/h 80 % 0 mm
21:13 29.6 °C 25.8 °C 1012.8 hPa SSE 11.3 km/h 17.7 km/h 80 % 0 mm
21:18 29.6 °C 26 °C 1012.4 hPa SE 14.5 km/h 24.1 km/h 81 % 0 mm
21:23 29.5 °C 25.9 °C 1012.8 hPa SSE 6.4 km/h 24.1 km/h 81 % 0 mm
21:28 29.4 °C 25.8 °C 1012.8 hPa South 17.7 km/h 24.1 km/h 81 % 0 mm
21:33 29.4 °C 26 °C 1012.8 hPa SE 11.3 km/h 20.9 km/h 82 % 0 mm
21:38 29.3 °C 25.9 °C 1012.8 hPa SE 17.7 km/h 20.9 km/h 82 % 0 mm
21:43 29.3 °C 25.9 °C 1012.8 hPa SSW 8 km/h 20.9 km/h 82 % 0 mm
21:48 29.3 °C 25.9 °C 1012.8 hPa ESE 17.7 km/h 19.3 km/h 82 % 0 mm
21:53 29.2 °C 26 °C 1012.8 hPa ESE 6.4 km/h 19.3 km/h 83 % 0 mm
21:58 29.1 °C 25.9 °C 1012.8 hPa ESE 4.8 km/h 17.7 km/h 83 % 0 mm
22:03 29.1 °C 26.1 °C 1013.1 hPa SE 9.7 km/h 17.7 km/h 84 % 0 mm
22:04 29.1 °C 26.1 °C 1013.1 hPa SSE 8 km/h 17.7 km/h 84 % 0 mm
22:09 29 °C 26 °C 1013.1 hPa SSW 8 km/h 16.1 km/h 84 % 0 mm
22:14 28.9 °C 26.1 °C 1013.1 hPa SSE 4.8 km/h 17.7 km/h 85 % 0 mm
22:19 28.9 °C 26.1 °C 1013.4 hPa East 9.7 km/h 20.9 km/h 85 % 0 mm
22:24 28.9 °C 26.1 °C 1013.4 hPa South 12.9 km/h 24.1 km/h 85 % 0 mm
22:29 28.8 °C 26 °C 1013.4 hPa SSE 8 km/h 24.1 km/h 85 % 0 mm
22:34 28.8 °C 26 °C 1013.4 hPa SSW 6.4 km/h 24.1 km/h 85 % 0 mm
22:39 28.7 °C 26.1 °C 1013.8 hPa SSE 9.7 km/h 20.9 km/h 86 % 0 mm
22:44 28.7 °C 26.1 °C 1013.8 hPa SE 4.8 km/h 20.9 km/h 86 % 0 mm
22:49 28.7 °C 26.1 °C 1013.8 hPa SSE 6.4 km/h 20.9 km/h 86 % 0 mm
22:54 28.7 °C 26.1 °C 1014.1 hPa South 8 km/h 20.9 km/h 86 % 0 mm
22:59 28.7 °C 26.1 °C 1014.4 hPa SE 3.2 km/h 14.5 km/h 86 % 0 mm
23:04 28.7 °C 26.1 °C 1014.4 hPa SSE 4.8 km/h 12.9 km/h 86 % 0 mm
23:09 28.7 °C 26.1 °C 1014.4 hPa SE 4.8 km/h 12.9 km/h 86 % 0 mm
23:14 28.7 °C 26.3 °C 1014.4 hPa South 9.7 km/h 12.9 km/h 87 % 0 mm
23:19 28.6 °C 26 °C 1014.4 hPa SSW 8 km/h 16.1 km/h 86 % 0 mm
23:24 28.6 °C 26.2 °C 1014.4 hPa SE 3.2 km/h 17.7 km/h 87 % 0 mm
23:29 28.6 °C 26.2 °C 1014.8 hPa SSE 8 km/h 17.7 km/h 87 % 0 mm
23:34 28.6 °C 26.2 °C 1014.8 hPa SSE 3.2 km/h 17.7 km/h 87 % 0 mm
23:39 28.5 °C 26.1 °C 1015.1 hPa SSE 6.4 km/h 12.9 km/h 87 % 0 mm
23:44 28.6 °C 26.2 °C 1014.8 hPa South 9.7 km/h 17.7 km/h 87 % 0 mm
23:49 28.6 °C 26.2 °C 1015.1 hPa SSE 8 km/h 17.7 km/h 87 % 0 mm
23:54 28.6 °C 26.2 °C 1014.8 hPa SE 3.2 km/h 17.7 km/h 87 % 0 mm
23:59 28.6 °C 26.2 °C 1015.1 hPa South 3.2 km/h 17.7 km/h 87 % 0 mm
Spring, Texas: Villages of Bridgestone
Compliments of Weather Underground - 2.75 mb

Script developed by  Jim McMurry - jmcmurry@mwt.net Adapted for the template by  Wim van der Kuil - Leuven-Template.eu

You find our weather info also at:

UK Metoffice

WeatherCloud

Weather Underground

Mid-South Weather Network

AWEKAS

Citizen Weather Observer Program (CWOP)

HAMweather, WeatherForYou, PWS Weather

Equipment we use:

Weather-station
Davis Vantage Vue

Weather-program
Meteohub

Weather-server
Debian 7.9 x86 (Guest)

Provider
DreamHost

Davis Vantage Vue

Meteohub

Debian 7.9 x86 (Guest)

DreamHost